Flag for Sweden Weather past 2 weeks in Stockholm, Sweden

Now
57 °F

Sunny.


Feels Like: 56 °F
Forecast: 47 / 57 °F
Wind: 7 mph from South

Location: Stockholm Bromma Airport

Current Time: May 24, 2015 at 9:25:12 PM

Latest Report: May 24, 2015 at 8:50 PM


Visibility: 10 mi

Pressure: 29.86 "Hg

Humidity: 51%

Dew point: 39 °F

Location of StockholmLocation

Historic Weather in Stockholm — Graph

°F

Stockholm temperature yesterday

Maximum temperature yesterday: 59 °F (at 3:20 PM)
Minimum temperature yesterday: 43 °F (at 10:50 PM)
Average temperature yesterday: 52 °F

Past Weeks' High & Low Weather Summary

 TemperatureHumidityPressure
High63 °F (May 24, 12:50 PM)100% (May 10, 11:50 PM)30.21 "Hg (May 10, 11:50 PM)
Low30 °F (May 16, 3:20 AM)31% (May 23, 4:50 PM)29.39 "Hg (May 13, 4:50 AM)
Average48 °F72%29.82 "Hg
* Reported May 9 7:20 PM — May 24 7:50 PM, Stockholm, Weather by CustomWeather, © 2015

Note: Actual official high and low records may vary slightly from our data, if they occured in-between our weather recording intervals... More about our weather records

Advertising

Stockholm weather history for previous 24 hours

 ConditionsComfort  
Time TempWeatherWind HumidityBarometerVisibility
7:50 PM
Sun, May 24
59 °FSunny.8 mph48%29.86 "Hg10 mi
7:20 PM63 °FSunny.2 mph37%29.86 "Hg10 mi
6:50 PM63 °FPassing clouds.5 mph37%29.86 "HgN/A
6:20 PM61 °FPassing clouds.6 mph39%29.86 "HgN/A
5:50 PM63 °FSunny.7 mph32%29.89 "Hg10 mi
5:20 PM63 °FPassing clouds.8 mph34%29.89 "HgN/A
4:50 PM63 °FPassing clouds.8 mph34%29.89 "HgN/A
4:20 PM63 °FPassing clouds.7 mph39%29.89 "HgN/A
3:50 PM63 °FPassing clouds.8 mph39%29.89 "HgN/A
3:20 PM63 °FSunny.10 mph39%29.89 "Hg10 mi
2:50 PM63 °FSunny.12 mph42%29.89 "Hg10 mi
2:20 PM63 °FPassing clouds.9 mph39%29.89 "HgN/A
1:50 PM61 °FPassing clouds.9 mph42%29.89 "HgN/A
1:20 PM61 °FPassing clouds.8 mph42%29.92 "HgN/A
12:50 PM63 °FPassing clouds.12 mph37%29.92 "HgN/A
12:20 PM61 °FPassing clouds.8 mph39%29.92 "HgN/A
11:50 AM61 °FPassing clouds.6 mph39%29.92 "HgN/A
11:20 AM59 °FPassing clouds.7 mph45%29.92 "HgN/A
10:50 AM59 °FPassing clouds.6 mph48%29.92 "HgN/A
10:20 AM57 °FPassing clouds.5 mph48%29.92 "HgN/A
9:50 AM57 °FRefreshingly cool.6 mph51%29.92 "HgN/A
9:20 AM55 °FRefreshingly cool.6 mph51%29.92 "HgN/A
8:50 AM54 °FCool.6 mph58%29.92 "HgN/A
8:20 AM54 °FCool.6 mph54%29.92 "HgN/A
7:50 AM52 °FCool.8 mph58%29.92 "HgN/A
7:20 AM52 °FCool.8 mph58%29.92 "HgN/A
6:50 AM50 °FCool.7 mph58%29.92 "HgN/A
6:20 AM50 °FCool.6 mph58%29.92 "HgN/A
5:50 AM48 °FCool.5 mph62%29.92 "HgN/A
5:20 AM46 °FCool.6 mph66%29.92 "HgN/A
4:50 AM43 °FQuite cool.3 mph76%29.92 "HgN/A
4:20 AM43 °FQuite cool.6 mph76%29.92 "HgN/A
3:50 AM41 °FQuite cool.6 mph81%29.92 "HgN/A
3:20 AM43 °FQuite cool.5 mph71%29.92 "HgN/A
2:50 AM43 °FQuite cool.7 mph71%29.92 "HgN/A
2:20 AM43 °FQuite cool.6 mph71%29.92 "HgN/A
1:50 AM46 °FCool.6 mph62%29.92 "HgN/A
1:20 AM48 °FPassing clouds.6 mph58%29.92 "HgN/A
12:50 AM50 °FOvercast.6 mph50%29.92 "HgN/A
12:20 AM46 °FOvercast.5 mph62%29.92 "HgN/A
11:50 PM
Sat, May 23
45 °FPassing clouds.3 mph66%29.92 "HgN/A
11:20 PM43 °FQuite cool.5 mph76%29.92 "HgN/A
10:50 PM43 °FQuite cool.5 mph76%29.92 "HgN/A
10:20 PM45 °FQuite cool.5 mph71%29.92 "HgN/A
9:50 PM46 °FCool.5 mph62%29.92 "HgN/A
9:20 PM48 °FCool.3 mph62%29.92 "HgN/A
Weather by CustomWeather, © 2015

See weather overviewHow to use our weather pages